Paris / Charles De Gaulle, France

2:46 AM CEST on August 20, 2017 (GMT +0200)
Charles de Gaulle

Weather History for LFPG - October, 2013

Change the Weather History Date:

Sunday, October 20, 2013

  Actual Average Record
Temperature  
Mean Temperature 60 °F -  
Max Temperature 64 °F 52 °F 69 °F (2004)
Min Temperature 57 °F 41 °F 37 °F (2003)
Degree Days  
Heating Degree Days 4    
Growing Degree Days 10 (Base 50)    
Moisture  
Dew Point 56 °F    
Average Humidity 90    
Maximum Humidity 94    
Minimum Humidity 77    
Precipitation  
Precipitation 0.00 in - - ()
Sea Level Pressure  
Sea Level Pressure 29.90 in    
Wind  
Wind Speed 9 mph ()    
Max Wind Speed 17 mph    
Max Gust Speed 40 mph    
Visibility 5.9 miles    
Events Rain , Thunderstorm    
Averages and records for this station are not official NWS values.
T = Trace of Precipitation, MM = Missing Value Source: Averaged Metar Reports

Daily Weather History Graph

Daily Weather History Graph

Search for Another Location

Airport or City:

Trip Planner

Search our weather history database for the weather conditions in past years. The results will help you decide how hot, cold, wet, or windy it might be!

Date:

Astronomy

Oct. 20, 2013 Rise Set
Actual Time 8:18 AM CEST 6:50 PM CEST
Civil Twilight 7:45 AM CEST 7:22 PM CEST
Nautical Twilight 7:09 AM CEST 7:59 PM CEST
Astronomical Twilight 6:32 AM CEST 8:35 PM CEST
Moon 7:38 PM CEST 9:49 AM CEST
Length of Visible Light 11h 36m
Length of Day
10h 32m
Full, 98% of the Moon is Illuminated
Oct 20
Full
Oct 27
Last Quarter
Nov 3
New
Nov 10
First Quarter
Nov 17
Full

Hourly Weather History & Observations

Time (CEST) Temp. Dew Point Humidity Pressure Visibility Wind Dir Wind Speed Gust Speed Precip Events Conditions
12:00 AM 59.0 °F 57.2 °F 94% 29.89 in - South 9.2 mph - N/A   Clear
12:30 AM 59.0 °F 57.2 °F 94% 29.89 in - South 8.1 mph - N/A   Clear
1:00 AM 59.0 °F 57.2 °F 94% 29.89 in - Variable 8.1 mph - N/A   Clear
1:30 AM 59.0 °F 57.2 °F 94% 29.89 in - South 10.4 mph - N/A   Clear
2:00 AM 59.0 °F 57.2 °F 94% 29.89 in - South 9.2 mph - N/A   Clear
2:30 AM 59.0 °F 57.2 °F 94% 29.89 in - South 10.4 mph - N/A   Clear
3:00 AM 59.0 °F 57.2 °F 94% 29.89 in - SSW 6.9 mph - N/A   Clear
3:30 AM 59.0 °F 57.2 °F 94% 29.89 in - South 8.1 mph - N/A   Clear
4:00 AM 59.0 °F 57.2 °F 94% 29.89 in - SSW 9.2 mph - N/A   Clear
4:30 AM 59.0 °F 57.2 °F 94% 29.89 in 4.3 mi South 9.2 mph - N/A   Unknown
5:00 AM 59.0 °F 55.4 °F 88% 29.89 in 4.3 mi South 9.2 mph - N/A   Unknown
5:30 AM 57.2 °F 55.4 °F 94% 29.89 in 4.3 mi South 9.2 mph - N/A   Unknown
6:00 AM 57.2 °F 55.4 °F 94% 29.89 in - South 9.2 mph - N/A   Clear
6:30 AM 57.2 °F 55.4 °F 94% 29.89 in - South 10.4 mph - N/A   Clear
7:00 AM 57.2 °F 55.4 °F 94% 29.86 in - South 11.5 mph - N/A   Clear
7:30 AM 57.2 °F 55.4 °F 94% 29.86 in - SSW 10.4 mph - N/A   Clear
8:00 AM 57.2 °F 55.4 °F 94% 29.89 in 6.2 mi SSW 9.2 mph - N/A Rain Light Rain Showers
8:30 AM 57.2 °F 55.4 °F 94% 29.89 in 6.2 mi WSW 11.5 mph - N/A Rain Light Rain Showers
9:00 AM 57.2 °F 55.4 °F 94% 29.89 in 5.0 mi SW 6.9 mph - N/A Rain Light Rain Showers
9:30 AM 57.2 °F 55.4 °F 94% 29.89 in 6.2 mi SSW 5.8 mph - N/A   Mostly Cloudy
9:48 AM 57.2 °F 55.4 °F 94% 29.89 in 6.2 mi SSW 12.7 mph - N/A Rain Light Rain Showers
10:00 AM 57.2 °F 55.4 °F 94% 29.89 in 6.2 mi SSW 10.4 mph - N/A   Mostly Cloudy
10:30 AM 57.2 °F 55.4 °F 94% 29.92 in 6.2 mi SE 11.5 mph - N/A   Mostly Cloudy
11:00 AM 59.0 °F 57.2 °F 94% 29.92 in 6.2 mi SSE 8.1 mph - N/A   Mostly Cloudy
11:30 AM 59.0 °F 57.2 °F 94% 29.92 in 6.2 mi Variable 10.4 mph 23.0 mph N/A   Mostly Cloudy
12:00 PM 59.0 °F 57.2 °F 94% 29.92 in 6.2 mi South 11.5 mph - N/A   Mostly Cloudy
12:30 PM 59.0 °F 57.2 °F 94% 29.92 in 6.2 mi South 10.4 mph 25.3 mph N/A   Mostly Cloudy
1:00 PM 59.0 °F 57.2 °F 94% 29.92 in 6.2 mi South 11.5 mph - N/A   Mostly Cloudy
1:30 PM 60.8 °F 57.2 °F 88% 29.92 in 6.2 mi South 12.7 mph - N/A   Mostly Cloudy
2:00 PM 60.8 °F 57.2 °F 88% 29.89 in 6.2 mi South 15.0 mph - N/A   Mostly Cloudy
2:30 PM 62.6 °F 57.2 °F 82% 29.89 in 6.2 mi South 12.7 mph - N/A   Mostly Cloudy
3:00 PM 62.6 °F 57.2 °F 82% 29.89 in 6.2 mi South 11.5 mph - N/A   Mostly Cloudy
3:30 PM 64.4 °F 57.2 °F 77% 29.89 in 6.2 mi South 13.8 mph - N/A   Mostly Cloudy
4:00 PM 64.4 °F 57.2 °F 77% 29.86 in 6.2 mi South 13.8 mph - N/A   Mostly Cloudy
4:30 PM 64.4 °F 57.2 °F 77% 29.86 in 6.2 mi South 15.0 mph - N/A   Mostly Cloudy
5:00 PM 64.4 °F 57.2 °F 77% 29.86 in 6.2 mi South 11.5 mph 24.2 mph N/A   Mostly Cloudy
5:30 PM 64.4 °F 57.2 °F 77% 29.86 in 6.2 mi South 10.4 mph - N/A   Mostly Cloudy
6:00 PM 59.0 °F 51.8 °F 77% 29.89 in 4.3 mi West 17.3 mph 40.3 mph N/A Rain , Thunderstorm Light Thunderstorms and Rain
6:30 PM 57.2 °F 53.6 °F 88% 29.89 in 5.6 mi WSW 11.5 mph - N/A Rain , Thunderstorm Light Thunderstorms and Rain
6:38 PM 57.2 °F 55.4 °F 94% 29.89 in 5.6 mi WSW 11.5 mph - N/A Rain , Thunderstorm Light Thunderstorms and Rain
7:00 PM 57.2 °F 55.4 °F 94% 29.89 in 6.2 mi SSW 10.4 mph - N/A   Mostly Cloudy
7:30 PM 57.2 °F 55.4 °F 94% 29.89 in - South 9.2 mph - N/A   Clear
8:00 PM 57.2 °F 55.4 °F 94% 29.92 in 6.2 mi SSW 8.1 mph - N/A Rain Light Rain Showers
8:30 PM 59.0 °F 55.4 °F 88% 29.92 in - SSW 13.8 mph - N/A   Clear
9:00 PM 59.0 °F 55.4 °F 88% 29.95 in - SSW 11.5 mph - N/A   Clear
9:30 PM 59.0 °F 55.4 °F 88% 29.95 in 6.2 mi SSW 11.5 mph - N/A   Mostly Cloudy
10:00 PM 59.0 °F 55.4 °F 88% 29.95 in 6.2 mi SSW 11.5 mph 24.2 mph N/A   Mostly Cloudy
10:30 PM 59.0 °F 55.4 °F 88% 29.95 in 6.2 mi South 9.2 mph - N/A   Mostly Cloudy
11:00 PM 59.0 °F 55.4 °F 88% 29.98 in 6.2 mi SSW 15.0 mph - N/A   Mostly Cloudy
11:30 PM 59.0 °F 55.4 °F 88% 29.98 in 6.2 mi SSW 12.7 mph - N/A   Mostly Cloudy